Location: Newark
(44.2003°N, 3.2583°E)
Time: 04:00:31
(UTC+00:00)

ISS - Visible Passes

Search period start: 16 September 2019 00:00
Search period end: 26 September 2019 00:00
Orbit: 411 x 421 km, 51.6° (Epoch: 16 September)

Date Brightness Start Highest point End Pass type
(mag) Time Alt. Az. Time Alt. Az. Time Alt. Az.
16 Sep -1.7 04:20:23 14° SSW 04:20:23 14° SSW 04:21:28 10° SSW visible
18 Sep -2.1 19:23:21 10° SSW 19:24:55 21° S 19:24:55 21° S visible
19 Sep -2.1 18:35:41 10° S 18:37:56 17° SE 18:39:16 14° ESE visible
19 Sep -1.5 20:11:01 10° WSW 20:12:14 21° WSW 20:12:14 21° WSW visible
20 Sep -3.9 19:22:32 10° SW 19:25:51 73° SE 19:26:20 59° E visible
21 Sep -3.4 18:34:15 10° SW 18:37:24 43° SE 18:40:13 12° ENE visible
21 Sep -1.7 20:11:05 10° W 20:13:08 28° WNW 20:13:08 28° WNW visible
22 Sep -3.0 19:22:22 10° WSW 19:25:36 49° NNW 19:26:50 31° NNE visible
23 Sep -3.6 18:33:43 10° WSW 18:37:02 75° NNW 18:40:22 10° ENE visible
23 Sep -1.3 20:11:21 10° WNW 20:13:17 22° NW 20:13:17 22° NW visible
24 Sep -2.1 19:22:30 10° W 19:25:29 29° NNW 19:26:45 22° NNE visible
25 Sep -2.5 18:33:41 10° W 18:36:48 37° NNW 18:39:57 10° NE visible
25 Sep -1.1 20:11:30 10° NW 20:13:00 18° NNW 20:13:00 18° NNW visible
